N0MDC Weather Reports


time (UTC)temp
C
wind
direction
speed
KPH
gust
KPH
rain 1hr
cm
rain 24hr
cm
rain mn
cm
humidity
%
barometer
mb
20260502210006 17 173 6.4 17.7 0.00 0.00 0.00 19 1014.5
20260502204509 16 316 4.8 25.7 0.00 0.00 0.00 19 1014.7
20260502203012 17 244 6.4 19.3 0.00 0.00 0.00 18 1015.1
20260502201532 17 205 8.0 19.3 0.00 0.00 0.00 19 1015.3
20260502200008 16 250 4.8 22.5 0.00 0.00 0.00 21 1015.6
20260502194507 16 192 6.4 19.3 0.00 0.00 0.00 18 1015.8
20260502193010 16 214 3.2 20.9 0.00 0.00 0.00 21 1016.1
20260502191522 16 279 6.4 19.3 0.00 0.00 0.00 20 1016.3
20260502190023 15 233 6.4 22.5 0.00 0.00 0.00 20 1016.5
20260502184504 15 250 6.4 16.1 0.00 0.00 0.00 19 1016.6
20260502183010 15 186 3.2 20.9 0.00 0.00 0.00 23 1016.8
20260502181513 15 211 1.6 19.3 0.00 0.00 0.00 20 1017.0
20260502163024 12 256 1.6 25.7 0.00 0.00 0.00 25 1018.7
20260502161526 12 286 9.7 17.7 0.00 0.00 0.00 24 1018.9
20260502151528 11 240 8.0 20.9 0.00 0.00 0.00 27 1019.4
20260502123031 3 263 1.6 12.9 0.00 0.00 0.00 49 1019.6
20260502121508 2 262 1.6 9.7 0.00 0.00 0.00 49 1019.5
20260502114507 1 256 1.6 8.0 0.00 0.00 0.00 50 1019.4
20260502113007 1 238 0.0 3.2 0.00 0.00 0.00 50 1019.3
20260502111512 1 240 0.0 4.8 0.00 0.00 0.00 50 1019.3
20260502110004 1 273 1.6 9.7 0.00 0.00 0.00 49 1019.3
20260502104503 1 216 0.0 6.4 0.00 0.00 0.00 49 1019.3
20260502103016 1 247 0.0 3.2 0.00 0.00 0.00 48 1019.4
20260502101512 2 247 0.0 3.2 0.00 0.00 0.00 47 1019.3
20260502091510 1 248 0.0 6.4 0.00 0.00 0.00 50 1019.5
20260502071524 2 262 0.0 0.0 0.00 0.00 0.00 47 1019.4
20260502070008 2 263 0.0 3.2 0.00 0.00 0.00 46 1019.5
20260502064531 2 263 0.0 6.4 0.00 0.00 0.00 46 1019.6
20260502063017 2 343 0.0 0.0 0.00 0.00 0.00 46 1019.7
20260502061522 2 343 0.0 0.0 0.00 0.00 0.00 45 1019.7
20260502060028 2 343 0.0 0.0 0.00 0.00 0.00 45 1019.6
20260502054529 3 343 0.0 0.0 0.00 0.00 0.00 44 1019.6
20260502053014 3 343 0.0 0.0 0.00 0.00 0.00 43 1019.6
20260502051517 3 343 0.0 0.0 0.00 0.00 0.00 43 1019.5
20260502050025 3 343 0.0 0.0 0.00 0.00 0.00 41 1019.5
20260502044534 3 343 0.0 1.6 0.00 0.00 0.00 41 1019.5
20260502043030 4 343 0.0 1.6 0.00 0.00 0.00 39 1019.5
20260502041512 5 343 0.0 1.6 0.00 0.00 0.00 38 1019.6
20260502040037 5 343 0.0 0.0 0.00 0.00 0.00 37 1019.6
20260502034526 5 343 0.0 0.0 0.00 0.00 0.00 35 1019.5
20260502033023 5 343 0.0 0.0 0.00 0.00 0.00 35 1019.6
20260502031509 6 343 0.0 0.0 0.00 0.00 0.00 34 1019.6
20260502030008 6 343 0.0 0.0 0.00 0.00 0.00 33 1019.6
20260502024514 6 343 0.0 0.0 0.00 0.00 0.00 33 1019.5
20260502023003 7 343 0.0 0.0 0.00 0.00 0.00 31 1019.4
20260502021506 7 343 0.0 0.0 0.00 0.00 0.00 30 1019.4
20260502020010 7 343 0.0 0.0 0.00 0.00 0.00 28 1019.3
20260502014529 8 343 0.0 1.6 0.00 0.00 0.00 27 1019.2
20260502013014 8 343 0.0 4.8 0.00 0.00 0.00 26 1019.1
20260502011504 8 360 3.2 9.7 0.00 0.00 0.00 24 1018.8
20260502010005 8 360 1.6 6.4 0.00 0.00 0.00 25 1018.8
20260502004521 8 349 4.8 14.5 0.00 0.00 0.00 23 1018.5
20260502003013 9 343 3.2 17.7 0.00 0.00 0.00 23 1018.4
20260502001527 10 355 1.6 9.7 0.00 0.00 0.00 22 1018.3
20260502000004 10 346 4.8 12.9 0.00 0.00 0.00 22 1018.2
20260501234509 10 342 4.8 16.1 0.00 0.00 0.00 22 1018.3
20260501233011 10 304 4.8 16.1 0.00 0.00 0.00 22 1018.2
20260501231516 10 332 6.4 20.9 0.00 0.00 0.00 22 1018.2
20260501230027 10 61 3.2 14.5 0.00 0.00 0.00 23 1018.1
20260501224520 10 332 4.8 17.7 0.00 0.00 0.00 20 1018.2
20260501223017 11 345 3.2 14.5 0.00 0.00 0.00 22 1018.0
20260501221515 11 355 3.2 19.3 0.00 0.00 0.00 21 1018.1
20260501220026 11 341 3.2 22.5 0.00 0.00 0.00 19 1018.0
20260501214525 11 314 6.4 19.3 0.00 0.00 0.00 20 1018.0
20260501213022 11 349 6.4 17.7 0.00 0.00 0.00 19 1018.0
20260501211514 11 269 3.2 16.1 0.00 0.00 0.00 23 1018.0